Weather History for KTRI - May, 2014

Change the Weather History Date:

Saturday, May 3, 2014

  Actual Average Record
Temperature  
Mean Temperature 58 °F 60 °F  
Max Temperature 72 °F 73 °F 89 °F (1942)
Min Temperature 44 °F 47 °F 32 °F (2005)
Degree Days  
Heating Degree Days 7 6  
Month to date heating degree days 27 18  
Since 1 July heating degree days 4357 4272  
Cooling Degree Days 0 1  
Month to date cooling degree days 0 3  
Year to date cooling degree days 21 14  
Growing Degree Days 8 (Base 50)    
Moisture  
Dew Point 38 °F    
Average Humidity 56    
Maximum Humidity 83    
Minimum Humidity 29    
Precipitation  
Precipitation 0.00 in 0.12 in 1.08 in (2010)
Month to date precipitation T 0.35  
Year to date precipitation 9.80 13.94  
Snow  
Snow 0.00 in 0.00 in - ()
Month to date snowfall 0.0 0.0  
Since 1 July snowfall 13.0 13.3  
Snow Depth 0.00 in    
Sea Level Pressure  
Sea Level Pressure 29.91 in    
Wind  
Wind Speed 8 mph (WSW)    
Max Wind Speed 25 mph    
Max Gust Speed 29 mph    
Visibility 10 miles    
Events      
T = Trace of Precipitation, MM = Missing Value Source: NWS Daily Summary

Daily Weather History Graph

Daily Weather History Graph

Search for Another Location

Airport or City:

Trip Planner

Search our weather history database for the weather conditions in past years. The results will help you decide how hot, cold, wet, or windy it might be!

Date:

Astronomy

May. 03, 2014 Rise Set
Actual Time 6:34 AM EDT 8:19 PM EDT
Civil Twilight 6:06 AM EDT 8:47 PM EDT
Nautical Twilight 5:32 AM EDT 9:21 PM EDT
Astronomical Twilight 4:57 AM EDT 9:56 PM EDT
Moon 10:04 AM EDT (5/3) No Moon Set
Length of Visible Light 14h 41m
Length of Day
13h 45m
Waxing Crescent, 19% of the Moon is Illuminated
May 3
Waxing Crescent
May 6
First Quarter
May 14
Full
May 21
Last Quarter
May 28
New

Hourly Weather History & Observations

Time (EDT) Temp. Dew Point Humidity Pressure Visibility Wind Dir Wind Speed Gust Speed Precip Events Conditions
12:53 AM 54.0 °F 39.9 °F 59% 29.88 in 10.0 mi West 4.6 mph - N/A   Overcast
1:53 AM 55.9 °F 39.0 °F 53% 29.88 in 10.0 mi WNW 8.1 mph - N/A   Overcast
2:53 AM 54.0 °F 39.9 °F 59% 29.90 in 10.0 mi West 5.8 mph - N/A   Overcast
3:53 AM 52.0 °F 39.0 °F 61% 29.90 in 10.0 mi West 3.5 mph - N/A   Mostly Cloudy
4:53 AM 46.9 °F 39.9 °F 77% 29.91 in 10.0 mi Calm Calm - N/A   Mostly Cloudy
5:53 AM 50.0 °F 39.9 °F 68% 29.91 in 10.0 mi West 4.6 mph - N/A   Overcast
6:53 AM 45.0 °F 39.9 °F 82% 29.93 in 10.0 mi Calm Calm - N/A   Clear
7:53 AM 50.0 °F 39.9 °F 68% 29.95 in 10.0 mi WSW 3.5 mph - N/A   Clear
8:53 AM 55.9 °F 37.9 °F 51% 29.96 in 10.0 mi West 6.9 mph - N/A   Clear
9:53 AM 59.0 °F 37.0 °F 44% 29.95 in 10.0 mi West 11.5 mph - N/A   Partly Cloudy
10:53 AM 62.1 °F 37.0 °F 39% 29.95 in 10.0 mi West 13.8 mph 19.6 mph N/A   Partly Cloudy
11:53 AM 64.9 °F 37.0 °F 36% 29.94 in 10.0 mi WSW 8.1 mph 20.7 mph N/A   Scattered Clouds
12:53 PM 64.9 °F 37.0 °F 36% 29.92 in 10.0 mi SW 13.8 mph - N/A   Partly Cloudy
1:53 PM 68.0 °F 37.9 °F 33% 29.90 in 10.0 mi SW 11.5 mph - N/A   Partly Cloudy
2:53 PM 69.1 °F 37.9 °F 32% 29.90 in 10.0 mi SW 18.4 mph 25.3 mph N/A   Mostly Cloudy
3:53 PM 69.1 °F 37.9 °F 32% 29.88 in 10.0 mi West 13.8 mph 20.7 mph N/A   Scattered Clouds
4:53 PM 70.0 °F 37.9 °F 31% 29.87 in 10.0 mi WSW 17.3 mph 26.5 mph N/A   Mostly Cloudy
5:53 PM 71.1 °F 37.9 °F 30% 29.86 in 10.0 mi WSW 11.5 mph - N/A   Scattered Clouds
6:53 PM 71.1 °F 37.9 °F 30% 29.87 in 10.0 mi WSW 12.7 mph - N/A   Scattered Clouds
7:53 PM 66.9 °F 39.9 °F 37% 29.88 in 10.0 mi SW 10.4 mph - N/A   Partly Cloudy
8:53 PM 66.0 °F 35.1 °F 32% 29.90 in 10.0 mi West 12.7 mph - N/A   Clear
9:53 PM 64.0 °F 35.1 °F 34% 29.93 in 10.0 mi West 6.9 mph - N/A   Clear
10:53 PM 62.1 °F 35.1 °F 37% 29.94 in 10.0 mi West 4.6 mph - N/A   Clear
11:53 PM 54.0 °F 37.0 °F 53% 29.96 in 10.0 mi Calm Calm - N/A   Clear